Weather History for LIRK - February, 2014

Change the Weather History Date:

Thursday, February 6, 2014

  Actual Average Record
Temperature  
Mean Temperature 29 °F -  
Max Temperature 32 °F 31 °F 48 °F (2000)
Min Temperature 26 °F 23 °F 8 °F (2006)
Degree Days  
Heating Degree Days 36    
Moisture  
Dew Point 26 °F    
Average Humidity 91    
Maximum Humidity 100    
Minimum Humidity 74    
Precipitation  
Precipitation 0.00 in - - ()
Sea Level Pressure  
Sea Level Pressure 29.84 in    
Wind  
Wind Speed 16 mph ()    
Max Wind Speed 25 mph    
Max Gust Speed -    
Visibility 4.3 miles    
Events Fog , Snow    
Averages and records for this station are not official NWS values.
T = Trace of Precipitation, MM = Missing Value Source: Averaged Metar Reports

Daily Weather History Graph

Daily Weather History Graph

Search for Another Location

Airport or City:

Trip Planner

Search our weather history database for the weather conditions in past years. The results will help you decide how hot, cold, wet, or windy it might be!

Date:

Astronomy

Feb. 06, 2014 Rise Set
Actual Time 7:16 AM CET 5:28 PM CET
Civil Twilight 6:47 AM CET 5:57 PM CET
Nautical Twilight 6:13 AM CET 6:31 PM CET
Astronomical Twilight 5:40 AM CET 7:03 PM CET
Moon 10:49 AM CET (2/6) 12:14 AM CET (2/6)
Length of Visible Light 11h 10m
Length of Day
10h 11m
Waxing Crescent, 46% of the Moon is Illuminated
Feb 6
Waxing Crescent
Feb 6
First Quarter
Feb 15
Full
Feb 22
Last Quarter
Mar 1
New

Hourly Weather History & Observations

Time (CET) Temp. Dew Point Humidity Pressure Visibility Wind Dir Wind Speed Gust Speed Precip Events Conditions
12:00 AM 27 °F 25 °F 90%  in 0 mi West 18.4 mph - - Snow Light Snow
12:55 AM 26.6 °F 24.8 °F 93% 29.74 in 0.0 mi North - - N/A Fog Light Freezing Fog
1:00 AM 27 °F 25 °F 90%  in 0 mi West 18.4 mph - -  
2:55 AM 26.6 °F 24.8 °F 93% 29.71 in 0.0 mi North - - N/A Fog Light Freezing Fog
3:00 AM 26 °F 25 °F 93%  in 0 mi West 18.4 mph - - Fog Heavy Fog
4:00 AM 26 °F 24 °F 91%  in 0 mi West 18.4 mph - - Snow Snow
4:55 AM 26.6 °F 24.8 °F 93% 29.68 in - North - - N/A Fog Light Freezing Fog
5:55 AM 26.6 °F 24.8 °F 93% 29.68 in - North - - N/A Fog Light Freezing Fog
6:00 AM 27 °F 25 °F 90%  in 0 mi West 25.3 mph - - Snow Snow
6:55 AM 26.6 °F 24.8 °F 93% 0.00 in - North - - N/A Fog Light Freezing Fog
7:00 AM 27 °F 25 °F 90%  in 0 mi West 25.3 mph - -  
7:55 AM 26.6 °F 24.8 °F 93% 29.71 in - North - - N/A Fog Light Freezing Fog
8:00 AM 27 °F 25 °F 90%  in 0 mi West 20.7 mph - - Snow Light Snow
8:55 AM 26.6 °F 24.8 °F 93% 29.74 in 0.0 mi North - - N/A Fog Light Freezing Fog
9:00 AM 27 °F 25 °F 90%  in 0 mi West 20.7 mph - - Fog Heavy Fog
9:55 AM 26.6 °F 24.8 °F 93% 29.77 in 0.0 mi North - - N/A Fog Light Freezing Fog
10:00 AM 27 °F 25 °F 90%  in 0 mi West 20.7 mph - - Fog Heavy Fog
10:55 AM 28.4 °F 26.6 °F 93% 29.80 in - North - - N/A   Partly Cloudy
11:00 AM 28 °F 26 °F 90%  in 7 mi West 18.4 mph - - Fog Light Fog
11:55 AM 28.4 °F 26.6 °F 93% 29.83 in - North - - N/A   Partly Cloudy
12:00 PM 28 °F 27 °F 94%  in 7 mi West 17.3 mph - -   Partly Cloudy
12:55 PM 28.4 °F 28.4 °F 100% 29.83 in - North - - N/A   Clear
1:00 PM 29 °F 28 °F 93%  in 9 mi WSW 15.0 mph - -  
1:55 PM 30.2 °F 28.4 °F 93% 29.86 in - North - - N/A   Clear
2:00 PM 30 °F 29 °F 93%  in 9 mi West 16.1 mph - -   Partly Cloudy
2:55 PM 30.2 °F 28.4 °F 93% 29.86 in - North - - N/A   Clear
3:00 PM 30 °F 29 °F 93%  in 9 mi West 18.4 mph - -   Partly Cloudy
3:55 PM 30.2 °F 28.4 °F 93% 29.89 in - North - - N/A   Clear
4:00 PM 31 °F 28 °F 86%  in 9 mi West 15.0 mph - -   Partly Cloudy
4:55 PM 32.0 °F 28.4 °F 87% 29.89 in - North - - N/A   Clear
5:00 PM 31 °F 28 °F 83%  in 9 mi WSW 16.1 mph - -   Scattered Clouds
5:55 PM 32.0 °F 28.4 °F 87% 29.92 in - North - - N/A   Clear
6:00 PM 32 °F 28 °F 79%  in 9 mi SSW 12.7 mph - -  
6:55 PM 30.2 °F 28.4 °F 93% 29.92 in - North - - N/A   Clear
7:00 PM 31 °F 28 °F 86%  in 9 mi West 13.8 mph - -  
7:55 PM 30.2 °F 28.4 °F 93% 29.95 in - North - - N/A   Clear
8:00 PM 30 °F 28 °F 91%  in 9 mi West 11.5 mph - -  
8:55 PM 30.2 °F 28.4 °F 93% 29.95 in - North - - N/A   Clear
9:00 PM 29 °F 29 °F 100%  in 9 mi WSW 9.2 mph - -  
9:55 PM 28.4 °F 26.6 °F 93% 29.95 in - North - - N/A   Clear
10:00 PM 29 °F 26 °F 85%  in 9 mi WSW 10.4 mph - -  
10:55 PM 28.4 °F 24.8 °F 86% 29.98 in - North - - N/A   Clear
11:00 PM 29 °F 24 °F 74%  in 9 mi West 11.5 mph - -  
11:55 PM 28.4 °F 24.8 °F 86% 29.98 in - North - - N/A   Clear